Precipitable_Water
0.63 0.60 0.56 0.54 0.54 0.54 0.56 0.56 0.57 0.59 0.59 0.58 0.58 0.56 0.56 0.55 0.55 0.57 0.61 0.63 0.62 0.62 0.60 0.59 0.59 0.57 0.55 0.52 0.50 0.46 0.45 0.36 0.32 0.31 0.29 0.23 0.31 0.38 0.36 0.39 0.36 0.41 0.51 0.55 0.54 0.63 0.68 0.64 0.68 0.89 0.92 0.86 0.88 0.84 0.95 0.79 0.87 0.82 0.64 0.52 0.45 0.47 0.50 0.62 0.74 0.76 0.76 0.72 0.78 0.88 0.81 0.76 0.72 0.85 0.94 1.15 1.07 0.99 1.01 0.98 0.97 0.96 0.99 1.07 1.07 1.16 1.21 1.29
0.63 0.60 0.57 0.54 0.53 0.55 0.56 0.55 0.55 0.57 0.59 0.58 0.58 0.57 0.55 0.54 0.55 0.58 0.63 0.64 0.63 0.62 0.61 0.61 0.59 0.56 0.52 0.49 0.48 0.47 0.42 0.33 0.25 0.25 0.22 0.33 0.37 0.35 0.34 0.35 0.34 0.38 0.50 0.46 0.49 0.60 0.63 0.63 0.66 0.85 0.82 0.78 0.77 0.78 0.76 0.73 0.78 0.70 0.51 0.52 0.48 0.50 0.53 0.56 0.58 0.70 0.77 0.69 0.85 0.79 0.97 0.90 0.79 0.89 1.04 0.95 0.91 0.92 0.88 0.95 0.97 0.93 0.95 1.02 1.04 1.13 1.16 1.20
0.61 0.60 0.57 0.54 0.54 0.54 0.55 0.55 0.55 0.57 0.58 0.58 0.58 0.57 0.55 0.55 0.56 0.60 0.65 0.65 0.63 0.62 0.60 0.60 0.58 0.53 0.50 0.50 0.47 0.46 0.41 0.28 0.28 0.20 0.19 0.27 0.34 0.34 0.32 0.31 0.32 0.38 0.43 0.40 0.49 0.66 0.63 0.70 0.70 0.73 0.78 0.75 0.60 0.64 0.65 0.59 0.62 0.52 0.50 0.48 0.48 0.60 0.69 0.74 0.80 0.78 0.81 0.75 0.70 0.85 0.79 0.82 0.78 1.00 1.06 0.96 1.06 1.01 0.89 0.81 0.90 0.83 0.79 0.89 0.95 1.02 1.07 1.17
0.60 0.60 0.58 0.54 0.53 0.54 0.54 0.53 0.53 0.54 0.56 0.58 0.58 0.57 0.56 0.55 0.57 0.63 0.65 0.64 0.63 0.60 0.60 0.59 0.55 0.52 0.50 0.48 0.50 0.49 0.39 0.29 0.17 0.14 0.21 0.31 0.28 0.29 0.29 0.28 0.30 0.36 0.41 0.42 0.62 0.64 0.65 0.71 0.69 0.74 0.74 0.71 0.57 0.55 0.54 0.56 0.57 0.51 0.51 0.47 0.47 0.51 0.52 0.57 0.68 0.67 0.78 0.88 0.78 0.71 0.79 0.77 0.89 0.81 1.08 0.85 0.76 1.01 0.98 0.91 0.87 0.81 0.80 0.84 0.93 0.93 1.04 1.11
0.57 0.59 0.59 0.55 0.52 0.52 0.52 0.51 0.51 0.54 0.55 0.56 0.56 0.57 0.57 0.56 0.59 0.65 0.65 0.64 0.62 0.58 0.58 0.55 0.51 0.51 0.50 0.51 0.48 0.50 0.36 0.14 0.24 0.44 0.44 0.33 0.30 0.28 0.27 0.26 0.30 0.35 0.39 0.43 0.62 0.72 0.58 0.62 0.63 0.68 0.72 0.61 0.54 0.52 0.51 0.50 0.49 0.53 0.55 0.60 0.60 0.58 0.61 0.70 0.71 0.79 0.76 0.75 0.71 0.77 0.78 0.81 0.96 0.98 1.00 0.99 0.84 0.84 1.02 0.99 0.96 0.91 0.89 0.87 0.86 0.92 0.98 1.05
0.54 0.57 0.57 0.55 0.52 0.51 0.51 0.52 0.53 0.55 0.56 0.56 0.56 0.56 0.55 0.56 0.61 0.65 0.64 0.64 0.59 0.56 0.52 0.47 0.47 0.46 0.50 0.52 0.51 0.45 0.28 0.18 0.37 0.55 0.52 0.43 0.34 0.29 0.26 0.25 0.29 0.36 0.40 0.44 0.53 0.69 0.52 0.54 0.53 0.59 0.63 0.59 0.47 0.38 0.50 0.37 0.47 0.44 0.50 0.59 0.63 0.66 0.68 0.68 0.63 0.64 0.77 0.80 0.79 0.76 0.79 0.93 0.92 0.87 1.03 1.06 1.08 1.07 1.18 1.04 0.98 0.96 0.96 0.95 0.99 0.95 0.98 0.97
0.51 0.55 0.57 0.57 0.54 0.50 0.50 0.51 0.51 0.52 0.55 0.56 0.56 0.55 0.55 0.55 0.63 0.66 0.64 0.64 0.57 0.51 0.46 0.45 0.46 0.45 0.43 0.49 0.51 0.36 0.23 0.22 0.31 0.62 0.49 0.42 0.36 0.30 0.26 0.26 0.33 0.36 0.39 0.41 0.49 0.56 0.44 0.45 0.51 0.56 0.61 0.56 0.38 0.36 0.37 0.38 0.42 0.52 0.50 0.56 0.48 0.63 0.62 0.64 0.71 0.74 0.75 0.71 0.72 0.75 0.89 0.84 0.86 0.86 1.06 1.05 1.22 1.22 1.13 1.03 1.00 0.98 1.00 0.98 0.94 1.02 0.97 0.95
0.50 0.52 0.56 0.56 0.55 0.51 0.50 0.50 0.51 0.52 0.54 0.56 0.55 0.56 0.55 0.55 0.65 0.66 0.65 0.62 0.55 0.49 0.49 0.50 0.49 0.44 0.44 0.35 0.31 0.25 0.20 0.17 0.31 0.49 0.45 0.34 0.30 0.29 0.26 0.26 0.27 0.29 0.35 0.38 0.45 0.46 0.40 0.40 0.47 0.58 0.53 0.44 0.29 0.36 0.34 0.34 0.47 0.53 0.57 0.59 0.60 0.63 0.60 0.70 0.68 0.64 0.66 0.68 0.75 0.83 0.80 0.73 0.82 0.86 0.99 0.94 1.03 1.08 1.03 1.03 0.97 0.96 0.94 0.96 0.96 1.00 0.98 0.97
0.49 0.51 0.54 0.56 0.56 0.53 0.49 0.50 0.51 0.51 0.53 0.55 0.55 0.55 0.56 0.54 0.66 0.66 0.65 0.61 0.54 0.48 0.50 0.55 0.50 0.44 0.47 0.34 0.25 0.24 0.21 0.37 0.51 0.49 0.41 0.32 0.25 0.25 0.24 0.24 0.27 0.25 0.30 0.37 0.48 0.47 0.36 0.41 0.52 0.61 0.46 0.39 0.38 0.36 0.35 0.36 0.50 0.54 0.55 0.56 0.61 0.62 0.72 0.66 0.62 0.69 0.72 0.79 0.81 0.72 0.67 0.66 0.77 0.92 0.86 0.91 0.95 0.98 0.99 0.97 0.97 0.97 0.93 0.92 0.99 1.01 0.97 1.02
0.48 0.50 0.52 0.55 0.55 0.54 0.51 0.49 0.49 0.50 0.51 0.55 0.55 0.55 0.55 0.55 0.66 0.66 0.65 0.61 0.52 0.48 0.52 0.54 0.54 0.40 0.33 0.26 0.21 0.15 0.49 0.63 0.56 0.49 0.41 0.26 0.22 0.24 0.24 0.24 0.23 0.26 0.29 0.35 0.48 0.44 0.37 0.47 0.60 0.59 0.55 0.53 0.35 0.33 0.34 0.41 0.47 0.58 0.48 0.56 0.59 0.69 0.67 0.69 0.70 0.63 0.63 0.68 0.72 0.67 0.60 0.64 0.79 0.80 0.73 0.96 0.99 0.96 0.97 0.96 0.98 0.97 0.95 0.96 1.04 1.03 0.99 1.09
0.48 0.49 0.52 0.53 0.55 0.54 0.51 0.49 0.49 0.49 0.51 0.53 0.54 0.55 0.54 0.54 0.64 0.66 0.65 0.61 0.54 0.47 0.50 0.53 0.54 0.39 0.22 0.26 0.19 0.14 0.58 0.56 0.61 0.52 0.35 0.26 0.20 0.23 0.23 0.28 0.27 0.28 0.31 0.36 0.44 0.44 0.45 0.51 0.64 0.62 0.44 0.42 0.32 0.34 0.27 0.39 0.57 0.56 0.58 0.60 0.60 0.64 0.72 0.72 0.67 0.61 0.65 0.67 0.72 0.72 0.69 0.75 0.80 0.79 0.80 0.90 0.99 1.03 0.95 0.94 0.97 1.01 0.96 1.02 1.11 1.03 1.00 1.15
0.48 0.50 0.51 0.53 0.54 0.54 0.53 0.50 0.49 0.49 0.50 0.52 0.53 0.54 0.55 0.54 0.62 0.67 0.66 0.61 0.53 0.50 0.50 0.54 0.55 0.37 0.27 0.25 0.23 0.28 0.56 0.56 0.55 0.60 0.43 0.26 0.19 0.22 0.24 0.32 0.32 0.31 0.30 0.33 0.38 0.41 0.40 0.51 0.54 0.50 0.39 0.37 0.29 0.29 0.38 0.48 0.55 0.58 0.60 0.55 0.54 0.67 0.68 0.64 0.68 0.71 0.65 0.59 0.76 0.79 0.70 0.60 0.69 0.60 0.79 0.98 1.00 1.05 0.97 0.90 1.01 0.98 1.03 1.15 1.14 1.05 1.04 1.17
0.49 0.49 0.51 0.53 0.53 0.54 0.53 0.51 0.50 0.49 0.49 0.51 0.53 0.53 0.54 0.54 0.62 0.67 0.68 0.61 0.57 0.50 0.50 0.58 0.58 0.38 0.32 0.22 0.15 0.39 0.48 0.60 0.54 0.50 0.50 0.32 0.22 0.25 0.25 0.31 0.33 0.32 0.32 0.33 0.35 0.36 0.40 0.50 0.57 0.49 0.45 0.31 0.31 0.25 0.48 0.50 0.58 0.63 0.59 0.59 0.58 0.63 0.61 0.73 0.77 0.70 0.67 0.68 0.78 0.84 0.58 0.59 0.64 0.71 0.77 0.90 1.08 1.00 1.00 0.97 1.02 1.01 1.04 1.07 1.05 0.99 1.12 1.17
0.48 0.50 0.51 0.52 0.52 0.53 0.54 0.51 0.49 0.48 0.48 0.50 0.52 0.52 0.53 0.53 0.63 0.68 0.68 0.62 0.59 0.54 0.53 0.61 0.67 0.44 0.32 0.31 0.52 0.40 0.38 0.62 0.57 0.48 0.45 0.39 0.25 0.20 0.24 0.30 0.31 0.29 0.33 0.33 0.33 0.35 0.40 0.54 0.54 0.49 0.46 0.36 0.33 0.46 0.40 0.50 0.59 0.54 0.59 0.61 0.61 0.56 0.55 0.71 0.72 0.68 0.68 0.70 0.82 0.83 0.60 0.60 0.66 0.75 0.80 0.81 1.00 1.07 1.01 1.04 1.03 1.05 1.04 1.05 1.00 0.99 1.12 1.15
0.50 0.50 0.51 0.52 0.52 0.51 0.51 0.52 0.49 0.48 0.48 0.48 0.51 0.52 0.52 0.54 0.64 0.69 0.70 0.64 0.63 0.56 0.58 0.64 0.62 0.43 0.31 0.38 0.49 0.44 0.42 0.56 0.54 0.40 0.44 0.38 0.27 0.20 0.21 0.28 0.29 0.27 0.31 0.33 0.28 0.27 0.36 0.54 0.51 0.41 0.39 0.40 0.38 0.37 0.41 0.51 0.52 0.57 0.62 0.53 0.72 0.62 0.59 0.66 0.74 0.69 0.67 0.72 0.88 0.77 0.65 0.66 0.68 0.71 0.84 0.83 0.84 1.06 1.11 1.11 1.07 1.07 1.08 1.04 1.06 1.03 1.15 1.14
0.49 0.49 0.50 0.50 0.50 0.51 0.51 0.51 0.49 0.47 0.48 0.48 0.49 0.51 0.53 0.58 0.65 0.70 0.72 0.70 0.67 0.61 0.62 0.53 0.61 0.48 0.36 0.34 0.64 0.64 0.41 0.25 0.35 0.37 0.43 0.42 0.30 0.22 0.22 0.27 0.30 0.27 0.29 0.30 0.30 0.27 0.40 0.52 0.42 0.40 0.38 0.38 0.36 0.33 0.43 0.48 0.45 0.53 0.59 0.55 0.66 0.64 0.63 0.64 0.70 0.75 0.81 0.71 0.82 0.76 0.65 0.73 0.68 0.73 0.84 0.90 0.88 0.91 0.84 0.98 1.11 1.09 1.12 1.16 1.13 1.15 1.26 1.18
0.48 0.48 0.48 0.49 0.49 0.50 0.49 0.50 0.49 0.48 0.48 0.47 0.49 0.49 0.55 0.63 0.69 0.74 0.77 0.74 0.63 0.59 0.53 0.52 0.69 0.62 0.23 0.51 0.62 0.44 0.29 0.24 0.39 0.35 0.43 0.42 0.34 0.28 0.25 0.27 0.28 0.26 0.28 0.30 0.42 0.42 0.40 0.42 0.43 0.39 0.37 0.34 0.34 0.39 0.42 0.43 0.41 0.51 0.59 0.52 0.64 0.63 0.64 0.61 0.73 0.63 0.82 0.67 0.76 0.72 0.70 0.75 0.75 0.72 0.78 0.85 0.87 0.79 0.84 0.82 1.06 1.17 1.08 1.10 1.13 1.16 1.26 1.20
0.50 0.49 0.48 0.48 0.48 0.48 0.49 0.48 0.49 0.47 0.48 0.48 0.46 0.48 0.54 0.65 0.77 0.79 0.81 0.73 0.65 0.57 0.60 0.63 0.63 0.45 0.25 0.42 0.36 0.37 0.31 0.27 0.36 0.36 0.39 0.40 0.37 0.31 0.27 0.25 0.25 0.24 0.26 0.25 0.37 0.39 0.42 0.37 0.37 0.30 0.31 0.30 0.29 0.35 0.31 0.38 0.41 0.46 0.48 0.51 0.55 0.61 0.66 0.65 0.64 0.61 0.75 0.69 0.69 0.73 0.73 0.78 0.74 0.73 0.76 0.83 0.90 0.87 0.79 0.82 0.87 0.85 1.04 1.09 1.12 1.08 1.22 1.24
0.51 0.50 0.49 0.48 0.46 0.46 0.47 0.48 0.47 0.47 0.48 0.48 0.46 0.50 0.63 0.74 0.84 0.87 0.83 0.71 0.45 0.41 0.28 0.40 0.40 0.23 0.27 0.34 0.39 0.45 0.24 0.38 0.40 0.36 0.30 0.33 0.31 0.29 0.25 0.25 0.22 0.21 0.19 0.23 0.33 0.36 0.37 0.37 0.31 0.28 0.27 0.26 0.26 0.33 0.40 0.42 0.43 0.46 0.47 0.48 0.51 0.52 0.59 0.67 0.73 0.73 0.76 0.67 0.63 0.69 0.64 0.72 0.70 0.70 0.76 0.81 0.93 0.90 0.78 0.87 0.89 0.86 0.79 0.90 1.02 1.13 1.14 1.11
0.51 0.49 0.49 0.48 0.47 0.46 0.45 0.46 0.47 0.46 0.48 0.44 0.42 0.47 0.56 0.69 0.73 0.71 0.75 0.74 0.51 0.40 0.44 0.53 0.51 0.40 0.38 0.39 0.34 0.38 0.36 0.50 0.34 0.34 0.33 0.34 0.29 0.24 0.20 0.20 0.20 0.22 0.21 0.23 0.33 0.33 0.36 0.28 0.25 0.23 0.26 0.25 0.28 0.32 0.38 0.42 0.41 0.43 0.48 0.43 0.48 0.48 0.58 0.76 0.83 0.77 0.69 0.66 0.65 0.82 0.72 0.76 0.74 0.71 0.74 0.76 0.89 0.89 0.75 0.79 0.88 0.88 0.83 0.84 0.98 1.04 1.05 1.06
0.52 0.50 0.49 0.48 0.47 0.45 0.44 0.43 0.45 0.46 0.48 0.45 0.42 0.42 0.36 0.49 0.43 0.49 0.49 0.50 0.57 0.48 0.40 0.46 0.47 0.45 0.45 0.43 0.35 0.33 0.35 0.37 0.38 0.33 0.32 0.37 0.34 0.22 0.17 0.18 0.20 0.20 0.24 0.26 0.31 0.35 0.35 0.25 0.25 0.24 0.28 0.26 0.29 0.33 0.36 0.36 0.42 0.37 0.35 0.37 0.46 0.47 0.47 0.60 0.61 0.74 0.70 0.64 0.61 0.70 0.72 0.74 0.76 0.75 0.74 0.78 0.73 0.80 0.74 0.78 0.80 0.83 0.84 0.91 0.94 1.03 1.00 0.96
0.51 0.51 0.50 0.48 0.47 0.44 0.43 0.42 0.43 0.45 0.47 0.47 0.43 0.39 0.42 0.51 0.55 0.59 0.49 0.33 0.41 0.43 0.47 0.50 0.49 0.41 0.50 0.46 0.36 0.42 0.45 0.35 0.29 0.30 0.33 0.29 0.37 0.22 0.17 0.17 0.19 0.18 0.22 0.25 0.31 0.28 0.28 0.22 0.26 0.26 0.29 0.29 0.29 0.31 0.35 0.36 0.36 0.37 0.30 0.33 0.37 0.44 0.48 0.55 0.59 0.69 0.70 0.59 0.66 0.69 0.70 0.78 0.82 0.78 0.79 0.77 0.72 0.79 0.78 0.79 0.80 0.83 0.81 0.88 0.91 1.03 1.07 0.96
0.51 0.50 0.50 0.48 0.45 0.44 0.42 0.41 0.41 0.43 0.47 0.49 0.43 0.45 0.46 0.56 0.58 0.60 0.54 0.41 0.33 0.38 0.41 0.46 0.41 0.37 0.45 0.47 0.46 0.51 0.38 0.31 0.23 0.26 0.29 0.26 0.32 0.24 0.19 0.17 0.18 0.20 0.22 0.24 0.26 0.25 0.23 0.25 0.27 0.28 0.28 0.28 0.26 0.29 0.31 0.34 0.34 0.29 0.28 0.29 0.28 0.38 0.37 0.42 0.52 0.62 0.65 0.57 0.56 0.69 0.67 0.81 0.86 0.85 0.84 0.82 0.76 0.81 0.83 0.84 0.82 0.84 0.86 0.84 0.89 0.98 1.02 0.96
0.50 0.51 0.50 0.48 0.46 0.42 0.42 0.39 0.41 0.49 0.55 0.50 0.45 0.47 0.55 0.53 0.50 0.60 0.50 0.36 0.30 0.32 0.40 0.46 0.43 0.38 0.40 0.41 0.45 0.41 0.33 0.32 0.29 0.24 0.32 0.24 0.26 0.26 0.21 0.18 0.19 0.21 0.20 0.22 0.28 0.27 0.24 0.28 0.30 0.30 0.26 0.27 0.25 0.25 0.26 0.28 0.28 0.30 0.29 0.28 0.32 0.36 0.38 0.43 0.51 0.54 0.59 0.60 0.58 0.64 0.63 0.71 0.82 0.84 0.83 0.85 0.83 0.79 0.79 0.86 0.79 0.85 0.88 0.90 0.90 1.03 1.03 0.99
0.50 0.51 0.50 0.48 0.44 0.45 0.38 0.38 0.40 0.52 0.46 0.44 0.41 0.48 0.56 0.49 0.59 0.65 0.50 0.37 0.34 0.27 0.33 0.41 0.44 0.39 0.40 0.48 0.49 0.36 0.29 0.33 0.29 0.30 0.31 0.24 0.25 0.24 0.21 0.21 0.22 0.20 0.22 0.21 0.26 0.30 0.29 0.32 0.30 0.29 0.26 0.24 0.25 0.24 0.22 0.26 0.24 0.25 0.28 0.30 0.32 0.34 0.39 0.44 0.52 0.49 0.46 0.45 0.54 0.53 0.54 0.55 0.80 0.85 0.86 0.92 0.85 0.82 0.84 0.79 0.77 0.82 0.87 0.87 0.88 0.94 1.00 1.03
0.48 0.50 0.50 0.47 0.45 0.43 0.39 0.31 0.48 0.48 0.45 0.38 0.41 0.51 0.68 0.71 0.69 0.68 0.49 0.36 0.21 0.23 0.37 0.25 0.43 0.30 0.42 0.36 0.41 0.37 0.31 0.25 0.31 0.32 0.32 0.25 0.30 0.25 0.27 0.23 0.24 0.21 0.23 0.22 0.22 0.28 0.33 0.35 0.30 0.27 0.27 0.25 0.25 0.25 0.25 0.24 0.22 0.23 0.23 0.28 0.31 0.31 0.32 0.42 0.48 0.43 0.38 0.37 0.50 0.52 0.43 0.49 0.73 0.71 0.81 1.03 0.96 0.88 0.88 0.83 0.79 0.83 0.88 0.89 0.87 0.91 0.99 1.02
0.47 0.49 0.50 0.47 0.43 0.45 0.31 0.25 0.37 0.39 0.35 0.33 0.36 0.46 0.52 0.57 0.61 0.56 0.44 0.34 0.23 0.23 0.28 0.37 0.29 0.35 0.34 0.39 0.38 0.36 0.19 0.21 0.32 0.34 0.34 0.31 0.27 0.32 0.26 0.23 0.23 0.26 0.25 0.25 0.22 0.24 0.34 0.36 0.33 0.27 0.26 0.26 0.25 0.24 0.26 0.24 0.23 0.23 0.29 0.28 0.28 0.28 0.29 0.31 0.30 0.37 0.37 0.44 0.45 0.49 0.48 0.42 0.53 0.63 0.74 0.95 0.94 0.95 0.94 0.89 0.82 0.85 0.86 0.90 0.91 0.89 0.95 0.98
0.46 0.48 0.49 0.48 0.42 0.42 0.38 0.40 0.36 0.32 0.35 0.36 0.36 0.45 0.51 0.53 0.58 0.60 0.39 0.19 0.20 0.31 0.29 0.31 0.31 0.43 0.34 0.43 0.43 0.29 0.24 0.28 0.24 0.29 0.36 0.32 0.30 0.28 0.25 0.24 0.21 0.23 0.25 0.24 0.18 0.25 0.30 0.31 0.32 0.25 0.25 0.26 0.24 0.24 0.28 0.25 0.22 0.26 0.32 0.30 0.30 0.29 0.28 0.28 0.27 0.41 0.39 0.38 0.36 0.41 0.47 0.41 0.41 0.62 0.72 0.77 0.78 0.80 0.87 0.92 0.87 0.86 0.90 0.92 0.94 0.90 0.94 0.96
0.46 0.46 0.49 0.48 0.42 0.36 0.48 0.46 0.42 0.33 0.34 0.42 0.47 0.52 0.56 0.57 0.52 0.43 0.41 0.24 0.39 0.32 0.47 0.32 0.43 0.34 0.35 0.43 0.40 0.33 0.24 0.26 0.23 0.28 0.35 0.33 0.31 0.32 0.25 0.28 0.25 0.23 0.26 0.25 0.22 0.25 0.28 0.32 0.30 0.24 0.25 0.25 0.26 0.26 0.29 0.25 0.23 0.27 0.34 0.40 0.34 0.31 0.30 0.28 0.25 0.27 0.29 0.33 0.30 0.34 0.42 0.40 0.44 0.73 0.71 0.83 0.78 0.74 0.77 0.85 0.91 0.90 0.89 0.90 0.95 0.99 0.98 0.99
0.46 0.44 0.47 0.49 0.42 0.35 0.49 0.52 0.39 0.40 0.46 0.50 0.51 0.56 0.59 0.53 0.42 0.29 0.30 0.19 0.45 0.31 0.37 0.37 0.31 0.29 0.33 0.35 0.36 0.34 0.23 0.25 0.26 0.31 0.32 0.27 0.29 0.35 0.36 0.37 0.31 0.25 0.25 0.27 0.26 0.28 0.28 0.28 0.29 0.26 0.25 0.25 0.28 0.28 0.27 0.25 0.23 0.30 0.34 0.34 0.34 0.30 0.27 0.27 0.27 0.27 0.26 0.25 0.28 0.36 0.41 0.41 0.40 0.52 0.65 0.61 0.65 0.70 0.70 0.78 0.88 0.95 0.94 0.93 0.96 0.97 0.98 1.02
0.47 0.44 0.45 0.51 0.38 0.37 0.37 0.28 0.38 0.46 0.52 0.60 0.58 0.54 0.52 0.43 0.31 0.28 0.24 0.33 0.28 0.34 0.39 0.34 0.30 0.32 0.29 0.30 0.28 0.29 0.25 0.25 0.24 0.29 0.27 0.26 0.26 0.29 0.32 0.29 0.30 0.25 0.24 0.26 0.26 0.27 0.26 0.24 0.24 0.26 0.26 0.27 0.28 0.26 0.26 0.25 0.26 0.29 0.27 0.29 0.30 0.25 0.29 0.29 0.27 0.26 0.23 0.26 0.32 0.39 0.40 0.48 0.37 0.41 0.51 0.65 0.68 0.69 0.74 0.79 0.87 0.92 0.97 0.99 0.96 0.95 0.98 1.04
0.47 0.44 0.44 0.45 0.41 0.45 0.31 0.25 0.37 0.40 0.44 0.47 0.42 0.42 0.40 0.27 0.32 0.24 0.28 0.45 0.19 0.29 0.28 0.31 0.32 0.30 0.29 0.30 0.28 0.22 0.22 0.24 0.25 0.26 0.25 0.21 0.21 0.21 0.25 0.23 0.23 0.20 0.19 0.22 0.21 0.24 0.24 0.21 0.24 0.27 0.29 0.27 0.24 0.23 0.25 0.28 0.29 0.28 0.32 0.33 0.27 0.29 0.28 0.24 0.28 0.27 0.26 0.25 0.36 0.42 0.44 0.38 0.36 0.40 0.51 0.56 0.68 0.76 0.72 0.70 0.79 0.88 0.92 0.92 0.95 0.94 0.98 1.03
0.47 0.45 0.43 0.40 0.40 0.37 0.37 0.32 0.31 0.34 0.37 0.38 0.38 0.39 0.31 0.24 0.20 0.26 0.30 0.40 0.24 0.31 0.32 0.32 0.30 0.28 0.28 0.28 0.25 0.22 0.24 0.22 0.25 0.25 0.27 0.23 0.20 0.20 0.24 0.27 0.26 0.21 0.18 0.21 0.20 0.19 0.21 0.25 0.27 0.29 0.26 0.25 0.25 0.23 0.25 0.26 0.26 0.26 0.29 0.28 0.26 0.25 0.26 0.25 0.29 0.31 0.32 0.35 0.36 0.36 0.41 0.35 0.39 0.42 0.47 0.49 0.54 0.58 0.65 0.65 0.67 0.80 0.80 0.87 0.94 0.96 1.00 1.02
0.46 0.45 0.39 0.36 0.40 0.39 0.38 0.41 0.39 0.37 0.40 0.43 0.33 0.32 0.29 0.22 0.20 0.37 0.31 0.34 0.34 0.33 0.32 0.30 0.31 0.30 0.28 0.25 0.25 0.22 0.21 0.26 0.25 0.26 0.27 0.23 0.19 0.19 0.20 0.25 0.27 0.22 0.21 0.19 0.17 0.19 0.19 0.23 0.27 0.27 0.21 0.27 0.26 0.26 0.28 0.29 0.29 0.28 0.29 0.29 0.30 0.29 0.30 0.27 0.30 0.28 0.30 0.32 0.38 0.42 0.34 0.30 0.32 0.37 0.47 0.52 0.49 0.56 0.58 0.68 0.68 0.68 0.84 0.88 0.96 1.03 1.06 1.07
0.45 0.42 0.42 0.44 0.43 0.41 0.40 0.41 0.42 0.45 0.43 0.35 0.28 0.25 0.21 0.20 0.23 0.28 0.32 0.36 0.38 0.37 0.30 0.30 0.30 0.29 0.27 0.26 0.27 0.24 0.23 0.24 0.28 0.26 0.26 0.23 0.18 0.19 0.19 0.19 0.24 0.23 0.22 0.18 0.18 0.22 0.22 0.26 0.29 0.30 0.27 0.27 0.28 0.32 0.34 0.33 0.31 0.29 0.26 0.30 0.28 0.28 0.36 0.33 0.37 0.34 0.31 0.31 0.31 0.34 0.33 0.38 0.37 0.49 0.48 0.49 0.51 0.58 0.58 0.59 0.62 0.64 0.67 0.75 0.96 1.08 1.12 1.13
0.43 0.39 0.45 0.38 0.36 0.40 0.48 0.45 0.45 0.47 0.43 0.32 0.25 0.22 0.20 0.23 0.21 0.28 0.37 0.39 0.39 0.35 0.34 0.34 0.30 0.27 0.26 0.24 0.27 0.25 0.26 0.25 0.27 0.25 0.24 0.22 0.21 0.17 0.23 0.20 0.19 0.20 0.22 0.21 0.22 0.22 0.25 0.23 0.29 0.29 0.30 0.29 0.29 0.34 0.33 0.30 0.25 0.28 0.27 0.25 0.30 0.37 0.39 0.36 0.34 0.34 0.33 0.31 0.30 0.38 0.37 0.38 0.42 0.45 0.49 0.51 0.50 0.51 0.51 0.51 0.56 0.62 0.64 0.69 0.73 0.99 1.12 1.18
0.41 0.40 0.35 0.38 0.38 0.41 0.48 0.55 0.49 0.44 0.41 0.31 0.24 0.20 0.23 0.24 0.25 0.30 0.44 0.37 0.39 0.40 0.41 0.32 0.29 0.25 0.25 0.23 0.23 0.24 0.25 0.24 0.26 0.25 0.22 0.23 0.20 0.20 0.21 0.22 0.19 0.20 0.26 0.29 0.27 0.28 0.25 0.23 0.28 0.28 0.25 0.31 0.32 0.32 0.34 0.32 0.33 0.33 0.28 0.29 0.33 0.31 0.29 0.31 0.27 0.29 0.28 0.26 0.29 0.33 0.33 0.37 0.39 0.33 0.48 0.50 0.49 0.51 0.51 0.50 0.48 0.55 0.57 0.54 0.66 0.80 0.95 1.13
0.43 0.40 0.40 0.39 0.34 0.40 0.56 0.63 0.49 0.43 0.36 0.28 0.23 0.23 0.28 0.23 0.27 0.29 0.44 0.49 0.44 0.40 0.40 0.36 0.32 0.31 0.25 0.25 0.23 0.24 0.26 0.22 0.25 0.26 0.25 0.26 0.20 0.24 0.20 0.19 0.20 0.20 0.26 0.32 0.30 0.30 0.28 0.24 0.27 0.30 0.29 0.32 0.33 0.30 0.30 0.31 0.34 0.31 0.31 0.35 0.27 0.25 0.23 0.28 0.27 0.23 0.26 0.27 0.29 0.30 0.33 0.33 0.32 0.35 0.42 0.46 0.47 0.53 0.57 0.57 0.52 0.57 0.61 0.58 0.56 0.61 0.91 1.19
0.46 0.51 0.35 0.35 0.43 0.37 0.61 0.62 0.45 0.41 0.30 0.24 0.23 0.23 0.25 0.27 0.29 0.32 0.45 0.49 0.47 0.43 0.38 0.40 0.36 0.32 0.28 0.24 0.25 0.25 0.27 0.21 0.23 0.23 0.21 0.24 0.19 0.21 0.18 0.19 0.19 0.20 0.26 0.33 0.30 0.33 0.30 0.25 0.28 0.33 0.32 0.33 0.32 0.27 0.23 0.25 0.30 0.32 0.31 0.30 0.33 0.30 0.28 0.27 0.24 0.27 0.29 0.28 0.30 0.31 0.36 0.32 0.37 0.38 0.48 0.50 0.53 0.56 0.59 0.57 0.56 0.55 0.62 0.67 0.66 0.60 0.69 1.01
0.47 0.48 0.38 0.62 0.55 0.41 0.61 0.52 0.40 0.39 0.27 0.22 0.23 0.23 0.28 0.24 0.23 0.31 0.44 0.48 0.49 0.44 0.45 0.47 0.41 0.35 0.30 0.27 0.26 0.25 0.26 0.25 0.22 0.23 0.21 0.24 0.19 0.23 0.20 0.22 0.23 0.20 0.25 0.32 0.32 0.35 0.31 0.30 0.26 0.32 0.36 0.33 0.26 0.27 0.22 0.25 0.24 0.26 0.26 0.26 0.28 0.29 0.34 0.31 0.33 0.31 0.28 0.28 0.29 0.31 0.31 0.38 0.45 0.50 0.56 0.55 0.55 0.53 0.55 0.60 0.60 0.57 0.53 0.61 0.67 0.65 0.62 0.92
0.40 0.41 0.45 0.67 0.58 0.61 0.56 0.44 0.35 0.30 0.26 0.26 0.28 0.27 0.27 0.24 0.24 0.27 0.43 0.50 0.50 0.50 0.50 0.49 0.47 0.41 0.41 0.28 0.23 0.25 0.26 0.26 0.23 0.22 0.22 0.23 0.22 0.21 0.24 0.25 0.26 0.24 0.24 0.30 0.30 0.33 0.31 0.31 0.28 0.30 0.31 0.29 0.28 0.31 0.29 0.27 0.29 0.27 0.27 0.26 0.31 0.30 0.25 0.26 0.29 0.37 0.33 0.29 0.27 0.30 0.30 0.43 0.52 0.57 0.55 0.55 0.54 0.53 0.53 0.55 0.58 0.55 0.52 0.55 0.63 0.63 0.71 0.86
0.34 0.32 0.38 0.71 0.76 0.65 0.47 0.32 0.31 0.33 0.28 0.25 0.25 0.27 0.26 0.29 0.26 0.30 0.39 0.48 0.48 0.48 0.53 0.53 0.51 0.49 0.49 0.45 0.33 0.26 0.25 0.26 0.25 0.22 0.23 0.22 0.25 0.25 0.29 0.28 0.28 0.29 0.26 0.26 0.29 0.34 0.33 0.34 0.30 0.31 0.31 0.32 0.33 0.33 0.33 0.30 0.29 0.28 0.28 0.28 0.31 0.31 0.31 0.28 0.24 0.30 0.34 0.35 0.37 0.36 0.30 0.39 0.51 0.55 0.55 0.53 0.52 0.54 0.54 0.52 0.54 0.62 0.62 0.62 0.58 0.61 0.78 0.91
0.38 0.36 0.74 0.79 0.80 0.65 0.44 0.30 0.33 0.30 0.27 0.28 0.32 0.32 0.31 0.29 0.28 0.29 0.35 0.43 0.44 0.48 0.46 0.45 0.47 0.45 0.49 0.47 0.43 0.38 0.26 0.24 0.25 0.24 0.24 0.24 0.25 0.28 0.33 0.32 0.31 0.29 0.30 0.27 0.32 0.35 0.33 0.28 0.29 0.30 0.35 0.36 0.37 0.34 0.34 0.33 0.31 0.29 0.29 0.30 0.28 0.25 0.29 0.31 0.32 0.33 0.33 0.37 0.34 0.32 0.29 0.42 0.52 0.55 0.57 0.56 0.56 0.57 0.57 0.58 0.51 0.62 0.65 0.58 0.56 0.63 0.86 0.92
0.34 0.42 0.55 0.73 0.76 0.63 0.43 0.27 0.25 0.28 0.28 0.30 0.31 0.31 0.33 0.29 0.27 0.28 0.34 0.43 0.40 0.44 0.43 0.46 0.44 0.46 0.46 0.51 0.46 0.40 0.34 0.24 0.27 0.27 0.25 0.24 0.23 0.28 0.31 0.33 0.33 0.30 0.30 0.29 0.28 0.33 0.27 0.31 0.30 0.28 0.30 0.32 0.32 0.33 0.34 0.35 0.32 0.28 0.27 0.27 0.29 0.30 0.31 0.31 0.32 0.36 0.31 0.33 0.35 0.32 0.29 0.47 0.63 0.59 0.62 0.63 0.54 0.60 0.64 0.68 0.63 0.61 0.65 0.59 0.63 0.59 0.73 0.96
0.35 0.35 0.39 0.58 0.67 0.57 0.40 0.35 0.33 0.31 0.30 0.29 0.30 0.29 0.30 0.28 0.28 0.31 0.35 0.40 0.48 0.46 0.42 0.39 0.42 0.44 0.45 0.50 0.47 0.45 0.47 0.30 0.27 0.30 0.28 0.25 0.23 0.27 0.29 0.28 0.33 0.31 0.31 0.32 0.33 0.35 0.29 0.31 0.29 0.23 0.22 0.22 0.24 0.26 0.27 0.29 0.27 0.27 0.27 0.29 0.32 0.32 0.32 0.31 0.28 0.32 0.29 0.34 0.36 0.36 0.37 0.57 0.67 0.64 0.59 0.60 0.60 0.61 0.63 0.64 0.71 0.71 0.64 0.60 0.64 0.72 0.75 0.91
0.43 0.38 0.46 0.34 0.49 0.53 0.43 0.43 0.39 0.39 0.39 0.36 0.32 0.32 0.32 0.28 0.29 0.31 0.41 0.44 0.48 0.50 0.48 0.46 0.38 0.39 0.42 0.46 0.43 0.42 0.43 0.42 0.35 0.32 0.30 0.26 0.24 0.25 0.26 0.31 0.35 0.34 0.33 0.36 0.35 0.34 0.28 0.30 0.31 0.27 0.27 0.24 0.28 0.33 0.38 0.36 0.32 0.27 0.27 0.27 0.26 0.31 0.34 0.34 0.35 0.33 0.30 0.33 0.35 0.39 0.42 0.54 0.59 0.56 0.58 0.59 0.62 0.61 0.64 0.66 0.64 0.64 0.67 0.69 0.70 0.78 0.87 0.95
0.48 0.38 0.59 0.55 0.44 0.42 0.39 0.37 0.31 0.36 0.38 0.46 0.41 0.42 0.33 0.29 0.31 0.35 0.45 0.42 0.48 0.48 0.49 0.45 0.42 0.36 0.34 0.41 0.41 0.40 0.42 0.42 0.42 0.42 0.36 0.27 0.25 0.27 0.27 0.28 0.33 0.35 0.43 0.41 0.38 0.34 0.30 0.26 0.27 0.30 0.27 0.30 0.33 0.33 0.36 0.34 0.27 0.28 0.28 0.29 0.30 0.33 0.35 0.33 0.31 0.31 0.39 0.38 0.33 0.41 0.44 0.45 0.47 0.51 0.54 0.57 0.62 0.66 0.67 0.67 0.69 0.66 0.66 0.69 0.75 0.79 0.85 0.95
0.41 0.55 0.69 0.78 0.61 0.48 0.35 0.31 0.32 0.30 0.34 0.43 0.46 0.53 0.48 0.40 0.33 0.32 0.48 0.47 0.47 0.47 0.43 0.44 0.43 0.39 0.37 0.36 0.41 0.40 0.43 0.42 0.44 0.42 0.39 0.33 0.29 0.28 0.25 0.27 0.30 0.40 0.36 0.37 0.40 0.33 0.30 0.27 0.29 0.29 0.30 0.30 0.31 0.31 0.34 0.38 0.39 0.39 0.38 0.35 0.32 0.31 0.31 0.31 0.32 0.33 0.36 0.35 0.33 0.43 0.46 0.43 0.50 0.52 0.61 0.62 0.62 0.60 0.62 0.68 0.71 0.69 0.69 0.71 0.72 0.73 0.84 0.90
0.46 0.48 0.62 0.72 0.59 0.62 0.62 0.60 0.48 0.38 0.33 0.37 0.46 0.52 0.50 0.49 0.46 0.42 0.40 0.45 0.43 0.41 0.43 0.41 0.40 0.42 0.42 0.41 0.40 0.42 0.46 0.41 0.40 0.48 0.57 0.48 0.34 0.43 0.28 0.26 0.26 0.48 0.34 0.35 0.38 0.35 0.33 0.29 0.32 0.29 0.26 0.31 0.32 0.31 0.34 0.35 0.37 0.37 0.37 0.35 0.34 0.33 0.31 0.29 0.30 0.33 0.34 0.35 0.35 0.38 0.42 0.41 0.46 0.50 0.56 0.60 0.63 0.65 0.70 0.79 0.77 0.71 0.68 0.67 0.66 0.73 0.82 0.90
0.39 0.38 0.47 0.63 0.60 0.57 0.61 0.61 0.56 0.49 0.45 0.46 0.39 0.50 0.54 0.56 0.55 0.54 0.46 0.42 0.45 0.43 0.45 0.39 0.43 0.46 0.45 0.44 0.41 0.41 0.46 0.52 0.52 0.51 0.54 0.57 0.53 0.54 0.51 0.35 0.30 0.35 0.40 0.35 0.35 0.37 0.33 0.29 0.29 0.30 0.32 0.33 0.35 0.34 0.32 0.33 0.33 0.33 0.37 0.38 0.38 0.36 0.33 0.33 0.32 0.32 0.34 0.34 0.35 0.36 0.39 0.41 0.48 0.57 0.61 0.65 0.68 0.67 0.70 0.73 0.69 0.68 0.66 0.64 0.61 0.61 0.64 0.79
0.38 0.37 0.45 0.50 0.45 0.53 0.59 0.63 0.57 0.57 0.50 0.53 0.52 0.56 0.60 0.60 0.59 0.60 0.55 0.48 0.44 0.49 0.45 0.40 0.44 0.46 0.46 0.45 0.44 0.40 0.50 0.64 0.67 0.66 0.63 0.58 0.56 0.63 0.49 0.45 0.40 0.34 0.35 0.37 0.36 0.36 0.33 0.30 0.37 0.36 0.31 0.29 0.30 0.29 0.33 0.32 0.31 0.30 0.32 0.37 0.39 0.36 0.33 0.35 0.34 0.34 0.33 0.32 0.35 0.37 0.39 0.41 0.50 0.59 0.65 0.65 0.66 0.69 0.70 0.72 0.71 0.68 0.66 0.63 0.58 0.55 0.58 0.68
0.43 0.38 0.48 0.52 0.38 0.44 0.51 0.58 0.59 0.55 0.51 0.56 0.58 0.58 0.54 0.54 0.56 0.59 0.56 0.64 0.61 0.56 0.63 0.64 0.60 0.55 0.54 0.52 0.49 0.61 0.67 0.65 0.67 0.68 0.66 0.65 0.66 0.64 0.58 0.58 0.52 0.47 0.46 0.40 0.41 0.35 0.35 0.32 0.30 0.31 0.28 0.27 0.34 0.35 0.34 0.36 0.33 0.28 0.26 0.29 0.31 0.32 0.36 0.37 0.39 0.42 0.42 0.43 0.43 0.41 0.44 0.50 0.60 0.67 0.65 0.64 0.67 0.71 0.73 0.72 0.68 0.66 0.69 0.66 0.64 0.72 0.66 0.61
Wind_Speed
14 14 14 14 14 14 14 14 14 14 14 14 14 14 14 14 14 14 14 13 13 14 14 13 13 12 12 11 10 9 9 9 9 9 10 10 9 8 8 8 8 9 9 9 9 9 7 6 5 5 4 5 4 4 5 2 1 1 1 2 3 4 4 4 6 6 7 8 7 7 7 7 8 8 7 7 8 8 8 9 10 11 11 12 14 15 15 14
15 15 15 15 15 14 14 14 14 15 15 15 15 14 14 14 14 14 14 14 14 14 14 13 12 11 11 10 9 8 8 8 9 11 12 11 9 9 10 10 10 10 10 10 10 10 9 7 5 5 5 5 4 4 4 2 2 1 1 4 5 5 5 5 6 7 7 7 7 7 7 7 7 8 7 6 8 9 10 11 12 12 12 13 14 14 14 14
16 16 16 16 15 15 15 15 15 15 15 15 15 15 15 15 15 14 14 14 14 14 14 12 11 10 10 9 8 7 7 8 9 10 11 12 11 11 11 11 11 11 11 11 11 10 9 7 4 6 6 4 4 4 4 3 2 1 2 3 3 4 5 6 8 7 7 8 7 7 6 6 6 7 6 6 7 8 9 10 10 11 12 13 13 13 14 14
17 17 16 16 16 16 16 15 15 15 15 16 16 16 16 15 15 15 15 15 15 14 13 11 10 9 8 8 7 7 7 7 7 8 9 10 12 12 12 12 12 12 12 12 11 9 9 6 4 7 6 5 5 5 6 5 2 2 4 3 4 5 5 7 8 8 8 8 8 7 6 7 6 6 7 7 7 7 8 9 10 11 12 13 13 13 13 13
17 17 17 17 17 17 16 16 16 16 16 16 16 16 16 16 16 15 15 15 14 13 12 10 9 8 8 7 6 6 5 4 3 4 6 9 11 12 13 13 13 13 13 12 11 9 9 7 6 7 6 7 6 4 7 3 2 2 4 4 5 6 7 8 8 8 8 7 7 7 7 7 6 6 7 7 5 5 8 10 11 11 12 12 12 12 12 11
18 18 18 18 18 17 17 17 17 17 16 16 16 16 16 16 16 15 15 15 14 12 11 9 9 8 8 7 6 6 5 3 1 1 5 8 10 11 13 14 14 14 13 12 11 10 9 8 7 6 6 8 5 4 7 3 2 3 4 4 6 7 8 8 7 7 7 8 8 7 7 7 7 6 7 8 6 6 9 11 11 11 11 11 11 11 11 10
18 18 18 18 18 18 18 18 18 17 17 17 17 17 17 17 16 15 15 14 13 12 10 10 9 8 8 7 7 6 8 8 4 1 5 8 9 11 13 14 15 15 14 13 12 11 10 10 8 7 6 6 6 6 7 3 1 3 5 6 7 7 8 7 7 7 7 7 7 7 7 7 8 7 8 9 8 8 11 11 11 11 11 10 10 10 10 10
19 19 19 19 19 19 19 19 18 18 18 18 17 17 17 17 16 16 15 14 13 12 11 10 10 9 8 7 7 7 9 11 7 3 5 8 10 12 13 14 16 16 15 14 13 11 10 11 9 8 6 4 6 6 5 4 4 5 6 7 7 8 8 8 8 8 7 7 8 9 9 8 8 8 8 8 9 10 11 11 11 11 10 10 9 10 9 9
19 19 19 19 19 19 19 20 19 19 19 18 18 17 17 17 16 16 15 14 13 12 11 11 10 10 9 8 8 8 8 8 7 6 5 8 10 13 14 15 17 17 16 15 14 12 11 10 10 9 4 2 6 5 4 7 6 6 6 7 8 8 8 8 8 8 8 8 9 9 9 9 8 8 8 8 9 10 10 11 11 10 10 9 9 9 8 8
19 20 20 20 20 19 19 20 20 20 20 19 19 18 18 17 17 16 15 14 13 12 12 11 11 10 10 10 10 8 6 6 7 7 6 9 11 13 15 16 17 18 17 15 15 13 12 10 8 8 5 3 7 6 5 8 6 7 7 8 9 8 8 8 8 8 8 8 8 8 9 9 8 7 7 8 8 9 11 11 10 10 9 9 9 8 7 7
19 20 20 20 20 20 20 20 20 20 20 20 20 19 18 18 17 16 15 14 13 13 12 12 11 11 11 11 11 9 7 7 7 7 7 9 12 14 15 16 18 18 17 16 16 14 13 11 6 7 5 3 8 7 5 8 7 8 9 9 9 8 9 8 8 9 8 8 8 8 9 8 7 7 6 8 8 9 10 10 10 10 9 9 8 7 6 6
20 20 20 21 21 21 21 20 20 20 20 21 21 20 19 19 18 17 16 15 14 13 13 12 11 11 11 11 14 13 8 7 8 8 8 10 12 14 15 16 17 18 18 16 15 14 13 10 7 9 7 4 8 7 5 8 8 9 10 9 9 9 8 7 7 8 8 8 8 8 9 7 6 7 7 7 8 9 9 9 10 9 9 8 7 6 6 6
20 20 20 21 21 21 21 21 21 21 21 21 21 21 20 20 19 18 16 15 15 14 13 13 11 11 11 11 15 16 12 9 9 9 9 11 12 13 15 16 17 18 18 16 14 13 11 9 7 11 10 5 8 6 4 9 9 10 10 8 9 9 8 7 7 7 7 8 8 6 5 6 6 7 8 7 8 9 9 9 9 8 8 7 6 6 6 6
20 20 21 21 22 22 22 21 21 21 21 21 21 21 21 21 19 18 17 16 15 15 14 13 12 11 12 12 13 15 15 11 10 11 11 12 13 14 15 16 17 18 18 15 14 11 11 10 8 11 11 9 8 5 5 9 10 10 9 8 9 7 7 8 6 6 6 6 6 4 3 5 6 7 8 7 7 8 9 9 8 8 8 6 6 6 6 6
21 21 21 21 22 22 22 22 22 22 22 21 21 21 22 21 20 19 18 17 16 16 15 14 13 12 13 15 14 13 14 13 12 13 13 13 14 14 16 17 17 18 17 15 13 11 12 12 9 10 11 10 9 9 10 10 9 10 9 9 8 6 7 8 7 7 6 5 4 3 3 5 6 7 8 7 7 8 8 8 8 8 7 6 6 6 6 6
21 21 21 21 22 22 22 22 22 22 22 22 21 22 22 21 20 20 18 17 17 17 16 14 13 13 13 13 13 13 15 15 14 15 15 15 15 14 16 17 17 17 17 16 12 11 14 13 10 11 11 9 9 11 13 10 9 10 10 9 9 8 8 9 8 7 7 6 5 3 3 6 6 6 8 8 7 8 7 7 8 8 7 6 6 5 6 5
22 22 22 22 22 22 22 23 23 23 23 22 22 21 21 21 21 20 19 18 18 17 17 15 13 14 15 13 13 15 16 16 16 16 16 16 15 15 16 16 16 17 18 16 12 11 15 15 12 11 11 10 10 12 15 12 10 11 10 9 10 9 9 9 9 8 8 6 5 4 4 6 7 7 8 8 8 7 7 7 8 8 7 6 6 5 5 5
23 23 23 23 23 23 22 23 23 23 23 23 22 22 21 20 20 20 19 18 17 17 17 16 15 14 15 17 18 16 16 17 17 17 17 17 16 16 17 16 16 17 18 16 13 13 16 15 13 12 11 12 12 13 14 13 12 12 10 9 10 10 9 9 8 8 9 7 6 6 4 6 8 7 7 8 8 7 6 7 7 7 7 6 6 6 6 6
24 24 24 24 23 23 23 22 22 22 23 23 22 21 20 19 19 19 19 19 18 18 17 16 17 16 13 15 18 17 17 18 18 18 18 17 17 17 17 17 17 18 18 15 14 16 16 14 13 13 12 13 15 15 14 13 12 13 12 11 10 10 10 10 9 9 10 8 7 7 6 7 8 7 8 8 9 8 6 6 7 7 6 6 6 6 6 5
25 25 25 24 24 24 23 23 22 22 22 22 20 19 18 16 15 17 19 20 21 22 21 19 20 20 15 13 17 18 18 18 18 19 19 18 18 18 18 18 18 18 18 15 15 17 16 15 14 13 13 14 16 17 16 15 13 12 12 11 11 10 10 12 11 10 10 8 8 7 7 9 8 8 9 8 9 9 7 7 7 7 6 6 6 6 6 5
25 25 25 25 25 24 23 23 22 21 21 21 20 18 18 17 15 15 18 21 23 24 25 23 22 22 18 15 17 19 19 19 20 20 20 20 19 19 19 19 18 17 18 17 16 16 16 16 15 15 14 14 16 17 17 17 15 13 10 10 13 12 11 13 12 11 11 9 8 8 8 9 9 9 10 9 9 9 8 8 8 8 7 7 7 7 7 5
25 25 25 25 25 24 24 23 22 22 21 20 20 20 20 19 18 17 18 21 23 24 25 26 25 24 21 17 17 20 20 19 21 21 21 21 20 19 19 20 18 17 18 18 16 16 16 17 17 16 15 14 15 16 17 18 16 14 11 11 13 13 11 12 12 11 10 9 8 9 9 9 9 9 10 10 9 9 9 9 8 9 8 7 8 7 7 6
25 25 25 25 25 25 24 23 23 21 19 18 19 20 21 21 20 19 19 21 23 24 25 26 27 26 24 21 19 21 22 21 22 23 23 23 21 20 20 20 19 18 18 19 18 17 16 17 17 16 16 15 15 16 17 17 14 13 13 12 12 14 13 12 12 11 11 10 9 9 9 9 10 10 10 11 11 10 10 10 9 9 9 8 9 9 8 7
25 25 25 25 25 24 23 23 21 18 17 18 19 20 21 21 20 19 20 21 22 24 25 26 27 26 26 24 21 22 23 23 23 24 25 24 23 21 21 20 20 18 19 20 20 19 16 17 18 17 16 16 16 16 16 15 13 13 15 13 11 13 14 14 13 12 12 11 10 10 10 10 10 9 10 12 11 11 11 11 11 10 10 10 10 10 10 9
25 25 25 25 24 24 24 22 18 16 17 18 19 18 19 19 19 18 18 20 21 23 25 26 27 27 26 25 24 23 23 24 25 25 25 26 24 21 20 20 20 19 20 22 21 19 17 17 17 18 17 17 16 16 17 15 12 13 16 17 14 12 12 14 15 13 11 12 12 12 11 10 9 9 11 11 12 13 13 12 12 11 11 11 11 11 11 10
26 25 25 25 24 24 23 18 16 17 18 18 17 15 15 16 17 17 18 19 20 21 23 24 25 26 26 26 25 23 24 25 25 25 26 27 26 22 20 19 19 19 20 20 19 17 17 18 18 18 18 19 17 15 16 16 14 12 15 17 16 14 14 14 16 14 11 12 13 14 13 11 10 12 13 12 12 13 14 14 14 13 12 13 13 12 12 12
26 25 25 25 23 22 20 18 18 18 19 18 16 15 15 15 16 16 17 18 19 20 22 23 22 23 25 26 26 24 24 24 25 27 27 27 27 24 21 20 19 20 19 18 18 17 18 20 19 19 20 19 18 16 14 16 15 13 13 16 16 16 16 14 14 15 12 12 14 16 16 13 12 14 15 13 13 15 15 16 15 14 14 14 14 14 14 14
27 26 25 24 23 22 20 20 20 19 19 19 17 17 16 15 15 16 16 16 15 16 20 22 21 21 23 26 27 25 23 23 25 27 28 28 28 26 23 22 21 20 20 19 18 17 19 20 19 20 20 17 17 18 16 16 16 13 11 13 14 16 17 14 12 13 12 12 14 15 16 14 12 13 14 15 16 17 18 18 17 15 15 15 16 16 16 15
27 26 25 25 24 23 21 20 20 20 20 19 19 18 17 16 15 15 17 17 15 15 19 20 20 21 23 25 27 26 25 25 25 26 28 29 29 27 23 22 22 22 22 21 19 18 19 20 19 20 20 18 16 18 18 17 17 14 11 12 14 15 15 14 13 13 13 13 14 14 16 15 12 11 13 15 17 18 18 18 17 17 17 17 17 17 17 16
27 26 25 25 23 21 20 20 21 20 19 19 18 18 17 17 16 16 18 18 16 16 18 19 21 23 25 25 25 27 27 26 25 26 28 28 30 29 24 22 22 21 22 21 21 19 19 20 19 18 20 18 17 18 19 18 17 15 13 13 13 11 11 12 14 13 13 13 15 16 16 16 14 13 14 15 17 17 17 17 17 18 19 19 18 18 18 17
28 27 26 24 23 21 20 20 19 17 17 18 17 17 18 17 17 17 18 17 17 18 18 18 21 24 26 26 24 26 28 27 26 28 28 28 30 29 25 23 22 21 21 21 21 21 21 20 18 17 19 19 18 18 18 19 19 15 12 13 12 9 8 12 14 14 13 13 14 16 16 17 15 14 14 15 16 18 16 16 17 17 18 19 19 19 18 17
28 28 27 25 25 23 22 22 20 18 18 18 17 18 18 18 19 19 18 15 15 18 19 19 22 24 26 27 24 26 28 27 26 29 28 28 28 29 26 23 22 22 21 20 20 20 20 20 19 18 20 21 19 18 18 19 19 16 14 14 14 11 10 11 13 13 13 13 14 16 16 17 17 16 15 14 15 17 16 16 17 18 18 19 19 19 18 18
29 28 27 26 25 24 24 24 22 20 20 19 19 18 19 19 20 20 20 18 14 15 18 19 22 24 26 27 25 26 28 27 27 28 28 29 28 29 29 26 24 22 20 20 20 20 18 17 20 20 20 22 21 18 18 18 17 17 16 14 14 13 12 12 12 12 13 14 15 16 16 16 16 15 15 15 15 17 16 16 17 18 19 18 19 20 19 18
29 28 26 25 24 24 25 24 23 21 20 20 19 19 21 22 21 20 21 21 17 14 17 18 21 24 26 27 26 27 28 27 28 28 27 29 29 28 30 28 26 24 21 20 20 21 19 17 19 20 19 22 23 19 18 18 17 17 17 15 15 15 13 12 11 11 12 13 14 16 15 14 12 10 10 10 11 13 13 12 11 12 14 16 17 19 19 19
29 27 25 24 24 24 25 24 23 22 20 20 20 21 23 23 21 21 20 21 20 16 15 17 20 23 25 26 26 28 28 25 27 29 28 29 29 28 29 29 28 27 23 20 19 21 21 19 20 21 20 22 22 19 18 19 19 18 17 17 17 16 14 13 13 14 13 12 12 13 12 12 10 9 9 9 7 10 10 10 9 9 11 13 14 17 18 19
27 25 24 24 24 23 24 23 23 23 22 21 22 23 24 22 21 20 18 19 21 17 15 18 21 22 23 25 26 28 29 26 26 28 28 29 30 30 29 28 29 30 26 21 18 19 19 18 19 22 22 23 23 21 19 17 17 17 17 19 18 16 16 15 15 15 14 13 12 12 13 13 12 12 14 14 12 11 11 12 12 11 11 11 12 14 17 19
24 24 23 24 24 23 23 23 23 23 23 23 24 24 23 23 24 23 19 18 19 18 17 19 22 23 22 24 25 28 29 26 26 27 26 28 30 30 30 28 29 32 29 23 19 19 18 16 19 24 23 22 23 23 21 18 17 17 16 17 17 17 16 15 14 14 14 13 12 13 14 14 13 12 12 14 13 12 12 12 13 11 11 12 12 14 17 19
23 23 23 24 24 23 23 23 23 23 23 23 25 25 23 23 25 25 23 20 19 20 19 19 21 23 23 23 24 27 29 26 26 26 26 26 28 30 31 29 29 32 31 27 21 19 18 16 18 25 23 21 22 24 22 21 21 19 16 15 15 15 16 16 15 12 12 13 12 12 14 14 14 12 10 12 12 10 10 11 11 11 11 12 13 14 17 18
22 21 21 22 23 23 23 23 23 23 24 24 25 24 23 24 25 27 26 22 19 20 21 19 20 22 23 24 24 26 29 28 26 25 25 25 26 29 31 29 28 31 32 30 23 19 19 16 15 22 24 20 21 23 22 21 21 21 18 15 14 15 15 16 15 13 12 12 11 11 11 11 12 12 11 12 11 10 10 9 10 10 10 12 13 13 15 17
21 20 19 18 19 22 23 23 23 23 24 24 24 23 23 24 25 27 28 24 21 21 22 20 19 19 21 24 25 25 27 29 27 25 24 24 24 26 30 29 27 30 31 31 26 21 19 17 15 20 23 21 21 22 23 22 20 20 20 17 15 14 14 13 14 14 14 12 10 10 8 5 7 10 11 10 10 9 9 8 9 10 11 11 12 12 14 16
19 19 19 18 18 20 22 23 23 23 23 24 24 24 23 23 23 26 28 26 22 23 24 22 20 18 18 22 24 24 25 27 28 26 24 25 25 24 28 30 28 28 30 30 27 23 19 17 16 18 21 22 22 22 23 23 22 20 20 18 16 14 14 13 12 13 14 13 11 10 7 3 5 8 8 8 9 9 9 9 10 11 11 10 10 12 13 14
19 18 18 19 20 20 21 22 22 23 23 23 24 24 23 23 23 25 27 26 23 23 25 25 23 21 20 20 22 24 24 25 27 27 25 25 26 24 25 30 30 28 27 27 27 25 20 17 17 20 20 21 23 22 23 24 23 22 21 20 18 15 15 14 13 12 13 13 13 12 9 6 6 7 8 7 7 8 9 9 10 10 10 9 10 11 12 13
20 20 19 20 21 21 22 22 22 23 23 23 24 25 25 24 24 25 26 26 24 23 24 25 24 23 22 21 21 22 24 23 26 29 27 25 27 26 25 28 30 29 27 26 27 26 22 19 18 19 19 19 20 21 21 23 23 22 22 22 21 18 17 17 15 13 13 14 14 13 10 8 8 8 8 7 7 8 9 9 10 10 9 9 10 11 11 13
20 22 22 21 22 23 23 22 22 22 22 23 24 25 26 25 25 26 26 25 24 23 24 25 25 24 23 23 21 21 22 22 24 27 28 26 26 27 27 28 30 29 27 26 26 25 24 21 19 19 18 18 18 19 20 22 22 22 22 23 24 22 20 19 17 15 15 15 15 14 11 10 10 9 9 9 9 9 9 9 10 10 10 11 11 10 11 12
20 21 22 23 23 24 24 23 22 22 21 23 24 24 25 25 26 27 27 26 25 24 23 24 25 25 24 24 23 21 21 21 21 22 25 27 25 26 28 27 28 30 28 25 25 26 25 24 21 20 20 20 20 19 19 21 21 21 22 24 24 24 23 20 17 17 17 15 15 14 11 10 11 11 10 10 10 10 12 12 11 10 10 11 12 11 11 12
18 18 19 21 23 24 24 25 25 23 21 22 23 24 25 25 25 26 26 25 26 26 24 22 24 26 25 26 26 23 21 22 20 17 20 25 24 24 27 27 28 30 28 25 25 25 25 26 25 24 23 23 21 19 18 19 21 21 22 24 23 22 22 21 18 19 18 16 17 17 14 13 14 14 12 12 12 12 14 14 13 12 12 12 12 12 12 12
19 18 16 16 20 23 24 24 25 24 23 22 20 21 24 25 24 24 24 25 26 27 26 23 23 25 26 27 27 24 22 23 22 18 18 23 24 23 26 28 27 27 25 26 27 25 24 25 27 27 26 27 26 21 18 18 20 21 22 24 24 23 23 22 21 20 18 17 18 17 17 17 17 17 16 15 14 13 13 13 14 14 14 14 14 14 14 13
20 20 18 15 17 21 21 21 24 25 26 25 21 20 22 24 24 23 23 24 27 28 27 25 25 26 26 26 26 25 24 23 24 20 17 20 23 22 24 27 25 22 24 28 28 27 26 25 26 27 28 28 29 27 23 20 20 22 23 23 25 26 26 25 24 23 20 19 18 16 16 18 18 18 18 16 14 14 13 12 14 15 15 15 16 16 16 15
20 21 21 18 18 20 20 20 22 23 25 25 23 22 21 22 23 24 23 22 24 27 29 27 26 26 26 25 25 25 24 23 24 21 16 16 18 17 20 26 26 23 24 28 27 26 27 26 25 27 27 26 28 29 29 26 23 23 25 24 24 26 27 27 27 26 24 23 23 21 20 20 18 18 18 17 16 17 16 15 16 17 17 17 18 17 17 17
19 20 21 21 21 21 20 20 20 21 22 23 23 23 22 21 21 21 23 23 22 24 27 29 28 26 26 26 26 27 27 24 24 23 19 17 16 14 17 23 26 25 26 27 25 25 26 26 25 25 25 27 27 28 29 28 26 25 26 26 26 25 26 27 27 26 26 25 23 21 20 20 19 19 20 20 20 19 18 19 19 19 19 19 19 19 19 19
18 21 22 22 22 22 21 19 19 20 21 21 22 22 22 22 20 18 20 22 23 22 23 26 28 26 26 26 25 27 27 25 24 23 22 20 18 16 17 19 23 25 25 26 25 24 25 25 25 24 24 26 26 26 27 28 28 28 28 29 28 25 24 24 24 24 25 23 21 21 21 20 18 18 19 19 19 18 17 19 19 18 19 19 20 20 20 19
17 19 20 21 23 24 23 21 20 20 20 21 22 22 22 22 22 21 19 19 22 24 22 21 22 23 24 23 21 21 23 25 26 24 23 23 21 20 20 20 22 24 23 24 25 24 24 25 25 25 25 25 27 27 26 25 26 27 27 27 28 27 25 23 22 23 23 21 19 20 21 20 18 17 18 18 16 16 16 18 18 18 19 20 20 20 20 21
Wind_Direction
297 298 296 293 290 290 290 290 288 287 287 288 290 291 293 294 296 297 298 298 298 296 295 293 291 292 291 291 290 287 286 280 268 254 242 236 225 212 206 199 194 191 190 191 190 189 188 188 188 181 166 157 155 149 147 130 82 64 9 71 79 67 66 105 129 132 130 124 125 119 111 111 112 114 110 116 115 108 111 107 107 112 116 120 123 124 124 125
296 297 296 293 290 289 290 289 287 286 286 287 288 290 291 292 294 295 297 297 296 295 293 292 290 291 291 290 288 286 285 275 264 256 243 233 221 209 204 199 194 188 186 188 188 186 184 181 179 176 172 168 158 141 156 161 96 75 74 85 77 77 72 93 127 132 130 126 126 122 116 114 118 117 109 114 119 115 111 107 113 116 117 121 124 127 127 128
295 296 296 293 291 289 289 288 287 285 284 285 287 288 289 291 292 293 295 296 295 294 292 290 288 289 290 288 285 283 282 276 266 257 243 227 213 206 200 196 193 187 186 187 187 184 185 190 188 182 181 180 169 153 149 137 111 51 83 112 89 91 89 93 109 114 123 126 123 122 119 120 127 127 124 131 128 124 122 121 126 127 127 129 129 132 133 133
294 295 296 294 290 288 288 287 286 284 282 283 285 287 288 290 291 291 293 294 294 292 289 286 284 285 286 285 283 279 278 278 266 252 236 215 205 201 197 194 190 187 187 188 191 188 189 198 195 184 187 187 172 166 156 119 81 71 75 104 105 100 109 110 111 113 120 117 113 118 117 116 117 122 130 137 136 132 134 134 136 136 136 135 135 137 138 136
292 293 295 295 291 288 286 286 286 284 282 281 283 285 286 288 289 289 291 293 292 289 284 280 280 278 278 281 277 274 271 273 267 245 220 201 197 194 193 191 187 186 185 188 194 192 192 197 189 184 191 189 166 162 180 144 40 121 94 103 113 106 111 112 113 113 117 115 115 116 108 104 101 105 110 113 135 144 140 140 138 138 139 139 140 141 141 140
290 291 292 294 292 289 286 285 286 284 282 281 281 283 284 286 287 287 289 291 289 284 278 274 274 272 272 274 269 263 242 225 318 236 191 187 190 188 187 187 185 184 183 187 193 190 191 190 185 179 174 186 193 189 182 156 38 138 116 113 115 114 114 109 113 116 117 115 114 111 104 105 105 107 107 117 152 153 135 139 139 138 140 140 143 144 144 143
290 290 290 292 292 290 287 285 284 283 282 280 280 281 282 284 284 285 288 287 283 277 273 269 268 266 266 265 260 251 231 239 270 227 172 178 187 186 185 185 183 183 184 186 189 187 188 186 183 178 176 193 202 180 168 158 108 133 127 130 121 116 119 115 116 114 110 105 106 110 106 105 104 106 108 119 141 136 129 137 140 139 140 142 145 146 146 147
290 290 289 290 291 290 287 285 284 283 281 279 279 279 280 283 281 282 286 283 277 271 268 265 264 261 259 255 252 247 240 242 240 199 177 182 186 185 183 183 183 183 184 186 187 185 184 189 189 180 184 198 182 172 173 176 146 126 125 129 124 121 122 116 111 109 111 110 110 110 101 97 100 105 105 109 121 125 131 139 140 141 143 144 146 146 146 150
291 290 289 289 290 289 287 285 284 282 281 279 278 278 279 281 278 279 283 279 271 266 264 263 262 258 252 247 245 249 246 229 208 193 189 188 186 184 184 183 183 183 184 188 188 187 187 188 189 186 199 212 182 178 186 186 159 138 140 132 131 129 125 119 114 110 110 111 110 107 100 100 105 108 108 112 121 129 136 140 141 144 146 148 149 146 147 154
291 290 289 289 289 289 287 284 283 282 281 279 278 277 277 278 276 276 278 274 266 262 261 260 261 256 246 240 236 236 225 204 199 200 197 190 184 184 185 183 182 183 186 188 184 187 189 182 184 196 228 244 187 169 174 188 163 147 156 144 139 135 129 121 114 111 111 113 111 110 109 109 110 108 111 120 128 135 140 142 145 147 146 151 152 145 152 160
293 291 289 289 289 289 288 284 283 282 281 279 278 276 275 276 273 272 273 269 262 259 258 257 258 253 242 237 231 224 212 211 207 198 196 190 183 183 185 183 183 184 185 187 185 189 193 194 209 207 207 198 178 168 165 177 161 157 162 145 142 143 135 123 118 121 120 117 113 114 114 111 107 101 112 127 134 141 145 146 149 151 148 153 151 145 160 166
296 293 290 289 288 289 288 285 283 281 280 278 277 275 274 273 270 268 268 265 258 255 254 254 255 249 242 237 229 221 217 221 213 199 194 190 186 185 185 183 184 186 185 186 188 194 203 213 228 203 184 152 167 163 153 168 162 161 162 152 153 154 143 135 135 131 124 120 120 121 116 108 103 103 116 130 136 141 146 150 152 151 150 154 151 152 170 170
300 296 292 289 288 288 287 286 283 281 279 277 276 275 273 272 268 264 263 261 255 252 251 250 250 247 242 235 227 223 224 223 214 205 195 190 189 186 186 185 185 187 186 189 192 196 209 218 212 199 200 196 170 154 161 173 163 160 164 164 162 161 158 150 141 139 135 128 127 127 116 108 108 115 122 129 138 143 146 150 153 151 152 156 152 161 173 169
302 300 296 291 288 287 286 285 283 281 279 277 275 275 273 270 265 260 258 256 253 249 247 246 247 244 236 231 229 221 219 220 213 205 197 191 189 187 187 187 187 187 189 195 197 199 207 209 207 202 203 206 190 177 182 170 163 168 169 170 170 172 172 158 153 161 154 141 143 152 135 120 121 128 130 127 137 147 148 149 153 153 155 156 152 163 167 163
302 301 299 295 290 286 284 284 282 280 279 277 275 274 273 269 262 258 254 252 251 245 243 245 243 239 234 234 232 216 213 219 214 205 199 193 190 188 188 188 188 190 194 199 201 206 203 199 207 202 194 206 212 201 184 169 173 179 173 178 182 184 181 170 171 175 161 152 161 179 163 138 134 140 141 136 136 143 147 152 157 156 157 158 155 162 161 160
300 300 300 298 294 288 284 282 281 279 278 278 275 274 272 266 260 255 252 250 247 240 238 240 238 235 234 234 225 214 214 216 210 203 199 195 193 190 188 189 191 194 197 198 205 213 200 194 204 204 198 203 204 190 179 174 183 182 180 189 183 182 196 187 180 184 176 164 166 190 178 154 149 150 151 150 142 140 146 153 159 158 157 159 156 161 160 158
298 299 299 298 296 292 287 282 279 277 277 277 276 274 269 264 259 254 249 246 241 235 234 236 238 235 232 231 225 219 215 210 205 200 197 196 195 192 189 190 192 193 195 198 208 207 195 196 202 203 205 201 190 186 185 185 186 182 188 201 188 185 206 199 187 193 193 182 175 185 180 161 159 160 163 165 155 149 151 152 158 163 159 158 158 160 160 159
296 297 297 297 296 295 290 285 280 276 275 275 274 272 268 263 257 251 246 240 233 231 232 234 235 232 231 231 229 223 212 206 202 198 197 197 197 194 191 191 191 191 195 201 206 200 193 197 202 204 207 201 193 192 194 191 190 190 196 205 197 195 209 206 199 199 198 200 188 190 197 171 167 171 172 177 174 164 158 157 161 166 164 163 167 162 155 158
295 295 295 295 295 294 292 287 282 277 274 272 271 269 264 260 254 246 241 234 227 227 229 226 221 225 234 228 223 219 208 202 199 197 198 197 197 195 192 193 193 193 198 201 200 197 194 194 202 211 210 202 197 197 199 195 193 199 204 207 203 206 208 203 212 206 195 205 198 202 214 185 177 183 180 185 187 180 170 169 168 168 170 171 172 164 158 164
294 294 294 294 294 294 291 288 284 279 274 269 267 264 257 255 251 242 237 232 229 231 235 231 220 223 236 228 217 212 203 199 200 199 199 197 196 193 192 194 195 196 199 200 196 194 196 199 204 211 208 201 200 202 207 205 198 200 208 208 205 213 205 197 214 210 197 215 204 193 206 193 187 191 188 191 192 191 185 179 176 176 178 179 178 170 168 177
293 293 292 292 293 293 291 288 284 279 274 266 259 256 251 254 256 250 244 239 235 234 236 235 228 227 233 231 219 206 199 201 202 202 199 198 198 195 193 195 196 198 199 200 197 195 202 207 206 208 208 203 202 205 212 215 212 212 215 211 209 216 210 202 212 206 202 220 211 201 207 200 197 198 197 197 198 201 197 191 190 187 185 187 188 180 177 187
293 292 292 292 291 291 291 288 283 279 273 262 252 249 248 252 257 257 254 247 241 238 236 233 231 230 229 226 215 202 202 205 203 203 200 197 200 198 193 195 199 199 198 200 199 198 206 211 209 209 210 207 205 209 216 221 226 232 229 218 213 216 212 203 200 196 205 219 220 218 216 208 208 207 204 204 207 211 205 202 201 195 193 194 195 190 187 195
292 292 291 291 291 290 289 287 283 277 266 256 250 248 249 252 255 257 254 249 244 240 237 231 227 227 223 219 211 205 210 210 204 203 199 198 202 199 195 198 201 201 200 202 202 201 207 212 211 209 211 213 211 212 219 224 230 237 231 217 212 217 213 198 190 198 214 222 225 224 225 224 216 213 215 212 214 217 212 211 211 206 203 203 203 201 200 200
291 291 291 290 290 288 288 286 280 269 259 254 253 252 251 252 253 256 254 250 245 240 236 231 225 224 221 217 213 211 214 212 207 203 199 200 202 200 200 201 202 204 204 204 206 207 208 211 213 210 211 217 216 211 214 223 226 226 226 219 214 219 215 202 199 211 221 224 229 225 229 231 215 217 225 218 220 224 219 217 218 216 211 211 211 208 208 208
289 290 290 290 289 287 287 282 270 264 261 255 254 256 255 250 249 254 254 250 246 238 233 230 224 221 219 216 215 214 215 212 209 205 200 202 202 200 203 204 204 208 206 206 209 212 212 210 212 214 211 212 217 215 213 220 224 220 220 223 228 221 205 199 199 207 223 229 229 223 228 233 222 230 237 228 230 230 224 223 223 222 218 216 218 214 212 213
288 288 289 289 288 288 284 272 262 266 262 252 252 257 256 251 249 252 251 247 245 235 225 221 219 216 214 214 212 212 215 213 209 206 201 203 204 202 205 206 206 210 208 207 211 216 215 210 210 217 215 211 217 221 216 216 222 222 212 219 233 222 202 204 202 207 232 236 225 222 229 238 230 235 240 235 241 240 229 226 225 224 223 222 223 220 217 217
286 286 287 287 286 286 277 265 266 266 255 250 258 261 257 255 253 250 246 243 242 230 216 212 212 212 212 211 208 209 214 209 206 207 203 203 204 204 208 207 206 212 210 207 213 216 216 212 209 215 218 216 217 219 215 210 216 226 214 211 226 225 221 229 218 215 233 239 231 225 229 243 241 234 234 229 238 245 237 231 228 226 227 227 229 226 221 221
284 283 285 284 283 280 270 264 266 260 251 254 260 260 256 256 253 245 239 238 233 219 210 208 210 212 212 209 206 211 214 206 205 208 203 203 205 205 211 212 209 213 212 210 213 213 214 213 209 210 215 218 216 215 214 209 213 227 228 218 221 228 237 245 226 217 228 237 241 231 225 242 249 231 227 228 233 240 237 232 229 230 232 231 231 229 225 224
282 281 282 282 280 275 264 260 260 255 251 253 255 255 253 252 248 238 234 233 226 216 212 210 211 212 210 207 207 212 214 207 207 206 201 203 207 207 213 216 213 213 214 216 217 214 214 216 214 212 215 219 215 212 213 212 214 222 230 235 228 221 230 239 230 233 244 241 244 240 226 235 249 233 226 232 234 237 237 233 231 234 237 235 233 231 228 227
280 278 278 279 276 269 262 258 255 252 251 251 251 253 250 244 238 233 230 228 226 220 212 211 211 209 207 206 208 212 212 209 207 203 201 204 206 208 215 218 216 216 216 218 221 219 214 215 221 220 216 217 214 211 213 212 215 221 224 231 227 212 220 235 234 244 258 248 244 249 234 229 245 243 232 238 239 237 236 233 233 237 237 234 233 233 231 229
278 276 275 274 269 264 261 256 251 249 248 248 249 249 244 235 231 233 228 225 228 218 209 211 210 207 207 207 208 210 210 209 207 201 201 204 205 208 214 215 215 217 216 216 220 220 216 216 220 221 215 214 212 211 213 211 214 221 221 223 227 223 227 237 235 238 251 250 245 250 240 232 248 253 242 245 241 229 228 233 235 236 237 233 230 232 232 230
277 275 273 269 264 259 253 250 250 250 247 246 247 242 236 230 229 230 226 223 222 215 213 214 209 207 209 208 209 209 207 209 208 203 203 205 206 208 211 212 210 213 215 215 215 216 220 219 215 217 214 211 210 207 210 214 215 215 218 223 229 230 228 230 233 235 243 249 246 249 248 244 253 256 247 249 240 222 226 241 240 235 236 235 230 230 232 230
276 274 271 265 260 254 248 248 251 249 245 242 241 235 230 230 229 226 225 222 215 215 220 218 211 210 209 209 211 208 206 209 208 204 204 207 209 209 211 214 213 214 215 212 210 211 215 214 209 212 212 209 209 208 208 212 211 209 214 220 222 225 227 226 233 241 245 249 247 247 252 253 259 254 241 247 242 223 231 247 242 235 233 234 232 230 232 231
276 272 267 261 256 251 246 246 245 242 240 235 233 230 227 230 229 226 225 222 219 223 222 216 211 209 209 211 211 207 207 210 207 206 206 207 210 211 211 214 214 214 213 211 210 209 210 212 210 212 210 204 210 218 214 210 211 213 215 219 223 226 229 227 232 240 243 249 246 240 243 247 255 251 235 247 240 217 226 235 229 230 227 231 235 229 230 233
275 269 263 258 253 248 243 241 238 235 233 229 228 228 226 228 226 225 226 221 220 226 224 218 212 209 211 213 212 208 209 211 208 208 210 209 211 212 211 213 213 211 211 212 212 210 214 220 214 212 210 204 209 218 213 209 214 217 217 224 229 226 226 233 242 246 250 257 252 242 244 241 243 248 240 245 232 210 219 223 221 232 230 236 240 230 231 235
273 266 260 254 250 245 239 235 232 229 228 226 228 229 227 227 224 222 222 218 220 229 234 226 215 212 213 212 212 209 208 212 209 208 212 211 212 214 212 213 212 211 213 214 211 209 216 223 211 207 210 207 208 213 212 210 213 213 215 224 231 229 228 235 244 248 252 261 255 246 250 245 244 254 244 234 231 227 234 243 243 243 241 243 241 233 236 237
269 264 259 252 248 242 234 229 227 225 225 226 229 231 229 228 226 223 223 225 228 233 239 233 219 215 214 210 212 209 205 210 209 208 213 213 214 215 214 214 212 212 216 215 212 211 218 226 210 204 210 209 208 213 218 218 213 211 215 220 227 236 238 238 243 243 241 250 252 243 244 242 245 256 240 220 225 230 235 248 248 240 242 248 244 237 237 238
266 263 258 251 245 236 228 224 223 222 224 227 230 232 231 229 227 224 224 232 236 230 234 236 221 216 216 212 211 209 205 207 209 210 214 214 215 214 213 215 212 212 216 216 214 213 219 229 213 203 209 211 208 214 219 219 217 218 220 219 222 231 235 234 239 246 244 249 252 247 247 248 247 248 227 210 217 225 229 244 245 237 240 247 250 248 241 236
263 259 254 248 238 227 221 220 221 222 225 227 229 231 231 231 229 226 226 235 241 231 230 235 222 215 218 216 212 209 207 208 211 212 214 214 214 212 212 214 212 211 214 214 215 217 221 229 216 202 207 209 206 212 217 217 218 222 227 232 233 235 235 233 233 240 248 250 250 248 251 256 252 237 216 211 219 226 231 236 236 240 247 247 250 258 249 236
259 252 249 242 227 217 215 218 222 224 225 227 229 230 231 230 230 228 229 234 238 230 225 228 221 214 218 218 215 211 209 210 213 214 214 213 212 211 211 213 212 209 211 212 215 220 222 226 217 202 205 210 209 212 217 217 216 219 226 233 235 232 232 233 228 228 236 243 247 248 247 256 254 230 210 212 221 229 237 239 240 254 264 256 250 259 256 241
255 248 243 231 216 212 214 220 224 225 227 229 230 231 231 230 229 226 226 231 236 229 222 224 225 221 222 220 217 215 212 211 214 216 215 213 213 214 211 212 212 208 208 211 214 217 217 216 211 203 208 218 219 216 218 219 218 218 221 226 229 228 226 230 227 222 230 241 244 245 241 225 237 229 216 220 227 227 236 247 252 255 261 264 260 260 259 248
247 241 236 223 215 215 218 224 227 226 228 229 229 231 231 231 230 226 225 229 232 227 221 224 228 229 229 226 223 221 215 212 214 216 217 214 214 216 211 210 211 208 208 210 211 214 214 212 212 209 214 225 224 217 217 220 224 226 223 222 227 231 229 230 230 224 230 237 236 241 240 219 225 231 220 224 232 229 234 251 260 252 250 264 272 267 259 251
242 239 236 225 219 222 225 228 228 227 229 230 230 232 232 231 230 227 227 228 226 224 222 224 228 228 229 229 228 226 221 216 215 217 220 219 217 217 212 209 210 210 209 210 209 212 214 216 217 214 218 225 221 215 217 220 225 231 227 222 225 231 232 233 236 234 236 236 233 237 234 221 231 237 224 229 242 242 244 257 264 258 253 260 273 276 263 252
247 243 239 232 224 225 228 228 227 227 229 230 231 232 232 232 229 226 227 228 226 224 224 225 227 227 226 225 227 229 226 220 214 217 222 222 218 217 214 210 210 210 210 209 209 210 213 215 218 218 218 217 212 213 220 220 220 227 229 225 224 227 231 235 238 237 239 240 237 237 231 223 235 239 235 242 248 252 257 258 259 261 261 263 270 279 271 258
248 240 235 232 226 226 228 228 228 229 228 228 230 231 231 231 230 227 226 227 227 226 227 226 226 226 225 223 225 229 231 225 217 217 222 221 218 217 214 211 211 213 212 209 208 212 215 215 218 222 222 218 214 216 224 225 221 224 230 230 226 224 225 230 235 234 235 236 235 237 234 226 230 232 238 247 247 257 266 264 262 262 262 269 273 274 274 266
242 234 232 230 225 226 229 228 229 231 229 229 230 230 230 230 228 226 224 225 224 225 228 229 226 224 222 222 224 226 229 228 223 222 224 219 216 216 215 211 212 214 214 211 209 213 218 219 221 224 227 227 225 223 226 228 223 220 224 228 230 230 227 228 232 236 236 234 236 237 231 224 227 231 241 251 251 258 264 263 265 265 262 269 274 274 277 273
233 228 230 232 227 225 226 226 228 229 229 231 231 231 232 232 228 223 222 225 225 224 227 229 227 224 221 221 224 226 228 227 227 231 229 219 215 217 217 214 213 211 211 214 214 214 219 223 223 224 226 230 233 232 230 229 227 225 226 228 230 234 235 234 236 237 234 234 240 237 227 228 235 238 243 249 249 255 259 257 261 266 267 270 272 272 275 274
230 228 232 237 229 223 224 226 227 228 228 229 230 232 233 234 232 226 222 225 226 224 225 227 227 227 225 223 224 226 226 223 224 229 230 221 218 220 219 215 210 205 208 215 217 217 221 226 227 226 226 229 234 237 237 236 232 231 233 233 231 233 237 239 242 241 237 238 243 239 232 236 241 241 243 245 248 255 261 260 263 269 272 275 275 271 270 273
235 231 232 238 234 228 232 234 232 231 228 227 228 230 233 235 234 231 225 223 222 221 223 225 226 226 227 226 224 222 222 222 223 226 230 227 223 224 221 214 207 204 210 216 218 218 222 228 231 230 229 230 231 232 236 239 238 233 234 237 237 236 237 239 242 243 243 244 245 243 242 244 246 246 248 251 254 257 259 262 268 273 277 279 279 273 269 271
238 233 234 239 236 231 234 236 233 230 227 225 226 227 230 232 232 228 223 220 221 221 222 224 227 227 228 229 227 223 221 223 225 228 231 231 228 226 221 214 210 210 213 216 218 219 221 226 229 229 231 233 231 229 233 238 240 239 238 240 240 239 238 238 240 242 245 247 247 248 250 249 248 248 250 254 258 257 257 261 267 273 277 278 279 277 273 270
243 238 237 238 233 228 229 232 230 227 225 225 225 225 227 230 229 226 223 222 223 223 222 225 228 228 229 232 231 225 222 222 226 228 228 228 229 226 219 214 213 214 215 218 220 220 220 224 227 228 233 235 233 233 233 235 239 241 241 241 240 238 237 238 239 242 245 247 248 250 251 249 248 247 247 252 255 253 254 260 263 269 274 275 276 277 276 274
248 242 238 237 232 226 226 228 228 227 226 227 229 229 230 231 231 229 227 224 223 222 222 225 226 223 225 227 225 223 225 226 227 228 228 227 230 229 223 219 217 218 220 221 221 221 222 224 226 229 234 235 234 236 237 237 238 239 240 243 243 240 240 241 243 244 246 247 248 248 248 246 246 249 251 254 254 252 258 263 265 270 275 278 279 278 278 279